Simultaneous Nadir Overpasses (SNOs) Predictions

Prediction of SNOs between GOES-16 and METOP-C Satellite Orbit:

Table of predicted SNOs for the next 14.0 days since TLE Epoch: 2/26/2024
Index Date Time (GOES-16) GOES-16 Lat,Lon METOP-C Lat,Lon Distance(km) Time Diff (sec)
1 02/26/2024 14:40:26 0.05, -75.21 0.49, -77.31 237.92 80
2 02/27/2024 14:17:06 0.05, -75.21 -0.60, -72.31 330.94 80
3 02/29/2024 02:38:48 -0.05, -75.20 -0.41, -76.91 195.25 80
4 03/01/2024 02:15:28 -0.04, -75.20 0.69, -71.92 373.69 80
5 03/02/2024 14:36:59 0.05, -75.22 0.33, -76.48 143.67 80
6 03/03/2024 14:13:40 0.04, -75.22 -0.77, -71.48 425.39 80
7 03/05/2024 02:35:21 -0.04, -75.20 -0.22, -76.09 100.45 80
8 03/06/2024 02:12:02 -0.04, -75.20 0.90, -71.09 468.75 80
9 03/07/2024 14:30:53 0.04, -75.23 0.13, -75.65 48.27 80
10 03/10/2024 02:31:54 -0.04, -75.23 -0.03, -75.26 3.54 80
